Location: Bruderhein
(53.8035°N, 112.9265°W)
Time: 14:28:25
(UTC+00:00)

TIGRISAT - Visible Passes

Search period start: 01 April 2023 00:00
Search period end: 11 April 2023 00:00
Orbit: 601 x 681 km, 97.7° (Epoch: 31 March)

Date Brightness Start Highest point End Pass type
(mag) Time Alt. Az. Time Alt. Az. Time Alt. Az.
01 Apr ? 03:25:53 10° NNW 03:28:18 14° NW 03:30:43 10° W visible
01 Apr ? 11:15:39 10° SE 11:19:41 34° ENE 11:23:49 10° N visible
02 Apr ? 10:06:45 10° ENE 10:07:55 11° NE 10:09:06 10° NNE visible
02 Apr ? 11:39:08 10° SE 11:43:30 52° ENE 11:47:58 10° N visible
03 Apr ? 10:28:46 10° E 10:31:30 16° NE 10:34:15 10° NNE visible
03 Apr ? 12:02:52 10° SSE 12:07:22 82° ENE 12:12:00 10° NNW visible
04 Apr ? 03:00:27 10° N 03:03:51 20° WNW 03:07:15 10° WSW visible
04 Apr ? 10:51:36 10° ESE 10:55:08 23° ENE 10:58:44 10° N visible
05 Apr ? 03:25:03 10° NNW 03:27:28 14° NW 03:29:53 10° W visible
05 Apr ? 11:14:46 10° SE 11:18:50 34° ENE 11:23:00 10° N visible
06 Apr ? 10:05:48 10° ENE 10:07:03 11° NE 10:08:19 10° NNE visible
06 Apr ? 11:38:13 10° SE 11:42:37 52° ENE 11:47:08 10° N visible
07 Apr ? 10:27:49 10° E 10:30:36 16° NE 10:33:23 10° NNE visible
07 Apr ? 12:01:55 10° SSE 12:06:28 82° ENE 12:11:08 10° NNW visible
08 Apr ? 02:59:33 10° N 03:02:57 20° WNW 03:06:20 10° WSW visible
08 Apr ? 10:50:37 10° ESE 10:54:13 23° ENE 10:57:50 10° N visible
09 Apr ? 03:24:06 10° NNW 03:26:32 14° NW 03:28:57 10° W visible
09 Apr ? 11:13:46 10° SE 11:17:53 34° ENE 11:22:04 10° N visible
10 Apr ? 10:04:45 10° ENE 10:06:04 11° NE 10:07:23 10° NNE visible
10 Apr ? 11:37:11 10° SE 11:41:38 52° ENE 11:46:09 10° N visible
